COSMOS 1275 DEB, 12757

Orbit data source: Space-Track

COSMOS 1275 DEB, 12757 is space debris in LEO originally from a launch on Thu, 04 Jun 1981 UTC launched from the Plesetsk Missile And Space Complex (PKMTR). Debris objects in space refer to the collection of defunct objects orbiting the Earth. Examples of debris include non-operational satellites, rocket bodies, and fragments generated from explosions, collisions, or faulty payload assembly.

Loading next visibility...
Identifier
12757, 1981-053DA
Orbit
LEO
Country
Flag of CISCIS
Related business
Manufacturer
Unknown
Mission
Spacecraft
Bus & Motor
Unknown
Mass
Unknown
Launch date (UTC)
1981-06-04 (45 years ago)
Launch vehicle
Unknown
Launch site
Plesetsk Missile And Space Complex (PKMTR)
Object type
Payload
Rocket body
Debris
Shape & HBR
Unknown shape, 0.1 m
Radar Cross Section
Medium (>0.1 m² and <1 m²)

Expand to show TLE details & history
Last TLE update: 1 day ago

TLE from 1 day ago
0 COSMOS 1275 DEB
1 12757U 81053DA  26235.25843726  .00000372  00000-0  32009-3 0  9993
2 12757  82.9516 164.6047 0056137 198.9238 319.7856 13.83428425262688
Epoch: 2026-08-23T06:12Z
TLE epoch observation values (Epoch: 2026-08-23T06:12:08.979Z)
Latitude
21.54703°
Longitude
-82.77348°
Altitude
923.064 km
Speed
7.408 km/s
True Right ascension
22h 47m 17s
True Declination
21° 25' 57"
Sunlit
Object was in full shadow at epoch
Visualization orbit readout
Latitude
Unknown
Longitude
Unknown
Altitude
Unknown
Speed
Unknown
Apparent Right ascension
Unknown
Apparent Declination
Unknown
Sunlit
N/A
Visualization observer readout
Local Sidereal Time
09:07:23
Azimuth
Unknown
Elevation
Unknown
Doppler factor
Unknown
Orbital elements
Apogee altitude
990.02 km
Perigee altitude
907.757 km
Semi-major axis
7,327.025 km
Eccentricity
0.00561
Inclination
82.9516°
RAAN
164.6047°
Arg. of periapsis
198.9238°
True anomaly
319.36803°
Mean anomaly
319.7856°
Eccentric anomaly
319.57704°
Mean motion
3.4606 °/min
Orbital period
104.03 mins
BSTAR
0.00032009
Loading maneuver chart data...
Computing Atmospheric mass density...

Documentation

Showing up to 5 results
|